Theta_e
333 333 332 332 332 333 333 333 332 332 331 331 331 331 327 322 319 319 322 322 319 319 324 328 330 329 327 327 326 327 326 327 329 330 329 329 329 330 330 331 330 330 330 329 328 324 317 313 313 312 311 312 314 315 316 318 319 319 319 318 317 317 318 319 319 319 319 319 320 321 320 319 321 321 321 321 320 319 318 315 311 311 313 312 311
333 332 331 331 331 331 332 332 332 331 331 331 331 331 331 329 323 319 318 321 323 322 321 323 327 326 325 327 328 330 330 330 330 331 331 331 331 331 331 331 330 330 330 329 329 326 318 312 312 311 312 313 315 316 317 319 321 320 320 318 317 317 318 319 319 319 319 319 319 320 320 319 320 320 321 321 320 320 320 319 316 314 314 313 312
332 331 330 330 330 330 330 330 330 331 331 330 330 330 331 331 328 323 320 320 322 324 325 324 325 325 326 330 332 332 332 332 332 331 332 332 331 331 331 330 330 330 330 330 330 328 320 312 311 311 313 313 315 317 319 321 321 320 320 319 318 318 318 319 319 319 319 319 319 319 321 321 321 320 320 320 320 319 319 319 318 318 318 317 316
331 330 329 329 329 329 329 329 329 330 330 329 329 330 330 331 331 328 326 325 324 325 327 327 327 328 329 331 333 333 333 333 332 332 332 332 332 331 331 331 330 330 330 330 330 330 324 315 311 312 313 314 315 318 321 322 322 321 320 319 319 319 319 318 319 319 319 319 319 319 321 322 321 320 320 321 321 320 319 320 320 320 320 320 319
330 330 330 329 329 328 328 328 329 328 328 328 328 329 329 330 331 330 330 329 328 328 329 329 329 329 329 329 331 332 332 332 332 332 332 332 332 331 331 331 330 330 330 330 330 330 327 319 313 313 314 315 317 320 323 323 322 322 319 318 319 319 319 319 319 320 320 320 319 319 321 322 322 321 320 321 321 322 322 322 322 321 320 320 320
331 331 331 330 329 329 329 329 329 329 328 328 327 328 328 328 328 329 329 329 329 329 329 329 329 329 329 329 329 329 329 330 329 329 330 331 331 331 331 331 330 330 330 330 330 330 329 324 317 313 315 317 319 321 324 324 323 322 319 319 318 318 319 318 320 321 321 321 320 320 321 321 322 321 320 320 322 322 323 323 323 323 322 321 320
331 331 331 331 331 330 331 331 331 331 330 329 329 328 327 326 327 326 327 327 327 328 328 328 328 328 329 329 329 328 328 328 328 328 328 329 330 331 331 331 330 330 330 330 329 329 329 328 322 316 315 318 321 322 324 325 324 322 320 320 319 318 318 318 320 321 320 321 321 320 321 321 321 320 319 320 322 323 323 323 323 323 322 321 321
330 331 331 331 331 331 332 332 331 331 331 331 330 329 328 328 327 327 327 327 327 327 327 327 326 327 327 327 328 329 328 328 328 328 329 329 330 331 331 331 330 330 330 330 330 329 329 329 325 319 316 318 321 323 325 325 325 323 320 320 319 319 319 319 320 320 320 321 321 320 320 321 320 319 320 321 322 323 323 323 323 323 322 321 320
329 329 330 330 330 331 332 331 331 331 331 331 331 330 330 329 329 328 328 328 328 328 328 327 327 327 326 327 328 328 328 328 328 328 329 329 329 330 331 331 331 330 330 329 329 329 328 329 327 323 318 318 321 324 325 326 326 324 322 321 320 319 320 320 320 319 320 321 321 320 320 321 320 319 320 322 322 323 323 322 322 322 321 320 316
329 329 330 330 330 331 332 331 331 331 331 331 331 331 331 330 330 329 329 329 329 329 329 329 329 329 328 327 327 327 327 326 326 327 328 329 329 330 330 331 331 330 330 329 329 330 328 328 328 326 322 320 321 323 325 326 326 325 323 321 320 319 319 320 320 319 321 322 320 320 321 320 320 320 321 322 322 323 323 322 322 321 321 319 311
330 331 330 330 331 332 332 332 332 332 331 331 331 331 331 331 330 330 330 330 330 330 330 330 330 330 330 329 329 328 328 328 327 327 327 328 329 329 330 331 331 330 330 329 329 330 329 328 328 327 326 324 322 323 325 327 327 326 325 322 321 320 318 319 320 320 321 321 319 320 320 320 320 320 321 322 322 323 323 321 320 319 320 317 309
331 331 331 331 331 332 331 331 331 332 332 332 331 331 330 329 329 329 330 330 330 330 330 330 330 330 330 330 330 330 330 330 329 329 328 328 328 329 329 330 331 331 330 330 330 329 328 328 328 327 327 326 325 324 325 326 327 328 326 324 322 320 319 319 320 321 321 321 320 320 320 320 321 320 321 322 322 322 322 320 318 316 315 312 306
331 331 331 331 331 330 330 330 331 332 332 332 332 331 330 329 329 329 329 329 329 329 330 331 331 330 330 329 328 329 329 329 329 329 329 329 329 328 328 328 329 330 330 330 330 330 329 329 329 328 327 327 326 326 326 326 326 328 327 326 324 321 320 321 321 321 322 321 320 319 319 320 320 320 321 322 322 322 321 320 316 312 309 306 303
331 331 331 330 330 330 330 330 331 331 331 331 332 332 332 331 331 330 330 330 329 329 329 330 331 330 330 329 328 328 328 327 327 327 327 328 329 329 329 329 328 328 330 330 330 330 330 328 328 329 328 327 327 327 327 326 326 327 327 327 326 323 321 323 323 323 323 322 320 319 318 320 320 320 321 322 322 322 321 319 315 310 307 303 302
332 331 331 331 331 330 330 330 331 331 331 331 332 332 332 332 332 331 331 331 331 330 330 331 330 330 330 330 330 330 329 329 328 328 327 328 328 328 329 329 329 329 329 330 330 331 331 328 327 328 329 328 328 328 328 327 326 326 326 327 328 325 322 324 325 324 325 324 321 318 317 318 319 320 321 321 322 321 320 319 315 310 306 302 301
332 331 331 331 331 330 330 330 330 331 331 332 332 332 332 331 331 332 331 331 331 331 331 330 330 330 330 331 331 331 331 330 330 329 329 328 328 328 329 329 329 329 329 329 329 330 331 330 328 329 328 328 328 328 328 328 327 326 326 326 328 327 323 324 326 325 325 325 323 319 316 316 318 320 320 320 321 321 320 318 314 309 305 301 301
331 331 331 331 331 330 330 330 330 331 331 331 331 331 331 331 331 331 331 331 331 330 330 329 329 330 330 330 331 331 331 330 330 329 329 329 330 329 329 329 329 329 329 329 328 329 330 331 331 330 329 328 328 329 329 328 327 326 326 326 327 327 325 324 327 327 325 326 326 321 317 315 315 318 320 320 321 320 319 318 313 306 303 301 300
330 330 331 330 331 330 330 330 331 331 331 331 330 330 330 330 331 331 330 330 330 329 329 329 329 329 329 329 328 329 329 329 329 329 329 329 330 330 329 329 328 329 329 329 328 328 330 330 331 331 329 328 329 329 329 328 328 327 326 325 325 326 326 325 326 327 326 326 327 324 319 315 313 315 318 318 320 318 318 318 311 304 302 301 300
329 329 329 330 330 330 330 330 330 331 331 330 330 330 329 329 330 330 330 329 329 328 327 327 328 327 327 327 326 326 326 327 327 328 329 329 329 329 329 329 329 329 328 329 329 328 329 330 331 331 330 329 329 329 329 328 328 328 327 325 324 324 326 326 326 327 326 326 327 326 324 319 312 313 316 317 318 317 317 317 309 302 302 301 300
328 328 328 328 329 329 329 329 329 330 330 330 330 330 329 329 329 329 329 328 328 327 326 326 326 327 328 328 326 325 325 326 326 326 327 328 328 328 328 328 327 328 328 328 329 329 328 329 330 331 330 329 329 329 329 329 328 328 327 326 325 323 323 326 326 326 326 326 326 326 327 323 315 312 315 317 317 318 318 315 306 301 301 301 300
327 327 326 327 327 327 327 327 328 329 329 329 329 329 329 328 328 328 327 327 327 327 326 326 326 327 329 327 327 326 325 325 325 325 325 326 326 326 327 327 327 327 327 327 328 328 329 328 329 331 330 329 329 329 329 329 329 329 328 327 326 323 322 324 326 326 326 326 326 326 327 325 320 315 314 317 318 318 318 312 303 301 301 300 301
326 325 325 325 325 325 325 325 326 327 327 327 327 327 327 327 327 327 327 327 327 327 327 326 326 326 325 326 328 328 326 324 325 325 325 326 326 326 326 327 327 327 327 327 327 328 329 328 328 330 330 329 328 329 329 329 329 329 329 328 327 325 321 322 326 327 326 326 326 326 327 326 324 319 313 315 318 318 317 310 302 301 301 300 300
324 324 324 324 324 324 323 324 325 325 325 325 325 325 325 325 325 326 326 327 326 326 326 326 325 325 324 324 327 326 325 324 324 324 325 325 325 325 326 326 327 327 327 327 327 328 328 328 328 329 330 329 328 329 329 329 329 329 329 328 328 327 323 320 323 327 327 326 326 326 326 326 326 324 317 312 317 319 316 312 305 301 300 300 300
321 322 322 322 322 322 322 322 323 323 322 322 323 323 323 323 324 324 325 325 325 325 324 323 323 323 323 324 324 323 323 324 324 324 324 324 324 324 324 326 328 328 327 327 327 328 328 328 328 329 329 330 329 329 329 329 329 329 329 329 328 328 325 320 321 325 326 326 326 326 326 326 325 326 323 314 313 318 317 314 308 302 300 301 300
319 320 320 319 319 320 320 320 320 320 321 321 321 321 322 322 322 323 324 324 324 324 323 322 323 324 323 323 323 323 324 324 325 324 323 324 326 326 325 326 328 328 327 327 327 327 328 328 328 328 329 330 329 329 329 329 330 329 329 329 328 328 326 322 321 324 326 325 326 326 326 326 325 326 327 319 311 314 317 316 311 303 300 300 300
318 318 318 318 318 318 318 318 318 318 319 319 319 319 320 321 322 322 322 323 323 322 322 322 323 324 323 323 323 322 322 322 324 324 324 325 326 326 326 327 328 328 327 327 327 327 327 327 328 328 328 329 329 329 329 329 329 329 329 329 328 328 327 324 322 323 324 324 324 325 325 326 326 325 327 324 315 311 314 316 312 304 300 300 300
316 316 317 316 316 316 316 317 317 317 317 317 317 317 318 320 321 321 321 322 322 322 322 322 322 322 322 323 323 322 322 322 323 324 324 324 325 324 325 327 328 328 328 327 327 327 327 327 328 328 327 328 329 329 329 329 329 329 329 328 328 328 327 325 323 322 323 323 323 324 325 326 326 325 326 326 320 313 310 313 311 304 300 300 300
315 315 315 315 315 315 316 316 315 315 315 315 315 315 316 318 320 320 320 319 320 321 321 321 321 321 321 321 321 322 323 323 323 323 323 324 325 324 325 327 328 328 328 327 327 327 327 327 328 328 327 327 328 328 329 329 329 328 328 328 328 328 327 326 325 324 323 323 322 323 324 325 326 326 325 326 324 315 307 307 306 303 300 300 300
314 314 314 314 314 314 314 313 312 312 311 311 312 312 314 316 318 319 318 317 318 319 320 320 320 320 320 319 319 321 322 323 324 324 324 324 323 323 324 326 327 328 328 327 327 327 327 327 328 327 327 326 326 327 328 328 328 328 328 328 328 328 328 326 326 326 325 323 321 321 322 324 325 326 325 326 324 316 306 304 303 301 301 300 300
311 312 312 313 313 312 312 311 311 310 311 311 311 311 312 312 314 315 316 317 318 319 319 319 319 318 318 318 317 318 320 321 322 324 324 324 324 323 324 325 326 327 327 327 327 327 327 327 327 327 326 325 325 324 325 325 326 327 328 328 328 328 328 327 327 327 326 325 321 319 321 324 325 325 324 325 325 320 311 306 303 301 300 300 299
310 310 311 312 312 312 311 311 311 311 311 311 312 312 312 312 312 313 314 315 317 318 319 319 318 318 318 318 316 316 319 322 322 323 324 325 325 325 324 325 326 326 326 327 327 327 327 328 327 327 326 325 324 323 323 324 326 328 328 327 327 328 328 327 327 327 327 326 321 317 319 322 324 324 324 324 325 324 318 308 304 301 300 300 300
310 310 311 311 311 311 311 311 311 311 311 310 310 310 310 311 311 312 313 313 315 316 317 318 318 318 318 318 316 316 319 322 323 324 324 325 325 325 326 326 326 326 327 327 328 328 328 328 327 327 327 327 325 324 323 324 326 328 328 327 327 328 328 327 327 327 327 326 322 318 318 320 322 323 323 323 323 325 321 310 304 302 299 299 300
310 310 310 310 310 310 309 309 309 309 308 308 308 308 309 309 310 310 311 312 313 314 315 316 317 318 318 318 317 317 319 322 324 324 324 324 325 325 326 326 326 326 327 327 327 328 327 327 328 327 327 327 326 326 325 324 325 327 329 328 328 328 328 328 328 327 326 326 323 320 319 319 321 322 323 323 323 325 322 312 304 302 300 299 300
307 308 308 308 307 307 307 307 307 306 306 306 306 306 307 307 308 308 309 310 311 312 313 315 316 317 318 317 317 318 319 321 323 324 324 324 324 325 325 325 326 326 327 327 327 327 327 327 328 328 327 327 327 326 326 324 324 325 327 328 328 328 328 328 328 327 326 324 322 321 320 319 320 321 322 322 323 325 323 311 303 302 300 299 300
304 304 304 304 304 304 304 303 303 303 304 304 304 304 305 305 306 307 307 308 309 309 311 312 314 316 317 317 317 318 319 320 321 323 323 324 324 325 325 325 325 326 326 327 326 326 326 327 327 328 327 327 327 326 325 324 323 324 326 328 328 328 328 328 328 326 324 322 320 320 321 320 320 320 321 322 323 325 322 310 303 302 300 298 300
300 299 299 299 299 299 299 299 299 300 300 301 301 301 302 302 303 304 305 306 307 307 309 310 311 313 314 315 316 317 318 319 320 321 323 324 324 325 325 325 325 325 325 325 326 326 326 326 327 327 326 327 327 326 325 324 324 324 325 327 328 328 328 327 326 324 323 321 319 318 319 318 318 319 320 322 323 325 321 309 302 302 300 298 299
296 296 296 296 296 296 296 296 296 297 297 297 298 298 299 300 301 302 303 305 305 306 307 307 308 309 310 311 313 315 316 318 319 320 321 322 324 325 324 324 325 325 325 324 325 325 326 327 327 327 326 326 327 327 326 325 325 326 326 327 327 328 328 327 325 324 324 324 321 318 316 314 314 317 320 322 324 324 319 308 302 302 300 299 299
295 295 295 295 295 295 295 295 295 295 296 296 296 297 297 298 299 301 302 303 304 305 305 306 306 306 307 308 310 312 314 315 316 318 318 319 321 323 324 324 324 324 324 324 325 325 325 326 327 327 327 327 326 327 327 327 327 327 326 327 327 327 328 327 325 324 324 325 323 321 317 312 311 316 321 323 324 323 315 305 302 302 300 299 299
295 295 295 295 295 295 295 295 295 295 295 295 296 296 297 298 298 299 300 301 302 303 304 304 305 305 306 307 308 310 312 313 313 314 315 316 318 320 321 322 324 324 324 324 325 325 325 325 325 326 327 326 326 326 327 327 327 327 326 326 326 327 328 328 327 325 324 325 325 322 319 313 311 317 322 324 324 319 310 303 302 301 300 299 299
295 295 295 295 295 295 295 294 294 295 295 295 295 296 296 297 298 298 299 300 301 302 303 303 303 304 305 305 307 308 309 310 311 311 312 313 315 317 318 320 322 323 324 324 324 324 324 325 325 325 326 326 325 325 326 327 327 327 326 326 326 326 327 327 327 326 324 325 325 323 320 315 313 318 323 324 323 316 306 302 302 301 299 299 299
295 295 295 295 295 294 294 294 294 294 294 294 295 296 296 297 297 297 298 298 299 300 301 302 302 303 303 304 305 306 307 308 309 309 310 310 311 313 316 318 320 322 323 324 324 323 323 324 325 325 325 326 325 324 325 326 326 326 326 326 326 326 327 327 327 327 325 325 325 324 321 317 314 319 322 323 321 315 305 302 302 301 299 299 299
294 294 294 294 295 294 294 294 294 294 293 294 295 295 296 296 296 296 297 297 298 298 299 300 301 301 302 303 303 304 305 306 307 308 309 310 310 311 313 315 317 319 321 322 323 323 323 323 324 325 325 325 325 325 325 325 325 325 326 326 326 326 326 327 327 327 326 326 325 325 323 318 314 315 319 321 319 313 305 302 301 301 300 299 299
294 294 294 294 294 294 294 294 294 293 293 294 294 294 295 296 296 296 296 296 296 297 297 298 299 300 300 301 302 303 304 305 306 307 308 309 311 312 313 314 314 315 317 319 321 322 322 323 323 324 324 325 325 325 325 325 325 325 326 326 326 326 326 326 326 326 326 326 326 325 324 321 315 311 314 318 317 310 304 302 301 300 300 299 299
294 294 294 294 294 294 294 294 294 293 293 293 294 294 294 295 296 296 295 295 296 296 296 296 297 298 299 300 301 302 302 303 304 305 306 307 309 310 312 314 315 315 315 317 319 321 322 322 323 323 324 324 325 325 325 325 325 325 325 326 326 326 326 326 326 326 326 326 326 325 324 322 318 312 310 314 313 308 304 303 301 300 300 300 300
294 294 294 294 294 294 294 294 293 293 293 293 294 294 294 294 295 295 295 294 294 295 295 295 296 297 297 298 299 300 301 302 302 303 305 306 307 308 310 312 314 315 316 317 318 319 321 322 322 322 323 324 324 324 324 324 324 325 325 326 326 326 326 326 326 326 326 326 326 325 324 322 320 314 309 308 308 305 304 303 301 300 300 300 300
294 294 293 294 294 294 294 293 293 293 293 294 294 294 294 294 295 295 294 294 294 294 295 295 295 296 296 297 298 298 299 300 301 302 302 304 305 306 307 309 311 314 315 316 318 319 320 321 322 322 323 323 324 324 324 325 325 325 325 325 326 326 326 326 326 326 326 326 325 325 324 323 321 317 311 308 306 305 304 304 301 300 300 300 300
293 293 293 293 293 293 293 293 293 293 293 294 294 295 294 294 295 294 294 294 294 294 294 294 295 296 296 297 297 297 298 298 299 300 300 301 303 304 306 307 309 311 312 314 316 318 320 321 322 323 323 324 324 324 324 325 325 325 325 325 325 325 325 325 325 325 325 325 325 324 323 323 322 319 314 309 306 304 304 304 302 301 300 300 300
293 293 293 293 293 293 293 293 293 293 293 294 295 295 294 294 294 294 294 294 294 293 293 294 295 296 296 296 296 297 297 297 298 298 298 299 301 302 304 306 307 309 311 311 313 316 318 320 322 323 323 324 324 324 324 325 325 325 325 325 324 324 324 324 324 325 325 324 324 323 323 323 322 320 316 311 307 305 305 304 303 301 300 300 300
293 293 293 293 293 293 293 293 293 293 293 294 295 295 294 294 294 294 293 293 293 293 293 294 295 296 296 296 296 296 297 297 297 297 297 298 299 300 302 304 306 308 309 310 312 314 316 319 321 322 323 323 324 325 325 324 325 325 325 324 324 323 323 323 323 324 324 324 323 322 322 322 322 320 317 313 308 306 305 305 304 302 300 300 300
293 293 292 292 293 293 293 293 293 293 293 294 294 294 294 294 294 293 293 293 292 292 293 294 295 296 296 296 296 296 296 296 297 297 297 298 299 299 300 302 304 306 308 309 311 313 315 318 320 322 323 323 324 324 325 325 324 325 325 325 324 324 323 322 323 323 323 323 323 322 321 321 322 320 317 314 309 307 306 305 304 303 301 300 300
293 292 292 292 293 293 293 293 293 293 293 293 294 294 294 294 294 293 293 293 292 292 293 294 295 295 296 296 296 296 296 296 297 297 297 298 299 299 300 301 302 304 306 307 309 312 314 317 319 320 322 323 323 324 325 325 324 324 325 325 324 324 324 323 322 322 322 322 323 322 320 321 321 319 318 314 310 308 307 305 304 304 302 301 300
Wind_Speed
6 5 5 5 5 5 5 6 7 7 6 6 6 6 6 6 7 9 10 10 11 14 18 18 17 16 15 14 13 13 13 13 12 11 10 10 9 9 10 11 12 13 13 13 14 13 12 10 8 6 5 5 4 4 5 4 4 5 4 3 1 1 2 2 2 3 3 4 4 4 5 6 8 8 8 8 8 8 8 9 10 10 10 11 10
6 6 5 5 6 6 6 6 7 7 6 6 6 7 7 7 7 8 10 12 12 13 15 17 17 17 15 15 14 14 13 13 13 13 12 12 10 9 9 10 11 13 13 13 13 13 12 10 9 7 5 5 5 5 5 4 4 5 4 3 2 2 3 3 3 3 3 3 3 4 5 6 7 7 8 8 9 8 9 10 10 11 12 12 12
5 6 6 6 6 6 6 6 7 6 6 6 6 7 8 8 8 8 9 11 13 13 14 15 17 17 17 16 16 16 15 15 15 15 15 14 12 9 9 10 11 12 12 12 13 13 12 10 10 8 6 6 5 5 5 4 5 5 3 3 3 3 4 4 3 3 3 3 3 5 6 6 6 7 9 10 9 9 9 10 10 11 11 12 12
5 6 6 6 5 5 6 6 6 7 7 7 7 7 7 8 9 9 10 11 12 13 14 15 15 16 17 18 17 18 17 17 17 18 19 18 16 13 11 12 13 12 12 12 12 12 11 11 11 9 8 7 5 5 5 5 5 5 3 3 4 5 5 4 4 3 3 3 4 7 7 7 6 7 9 9 9 9 10 10 10 10 10 11 12
4 5 5 5 4 5 5 6 7 7 7 7 8 8 8 8 9 10 10 11 12 13 14 14 14 15 16 18 19 20 20 20 19 20 21 21 20 17 15 14 15 14 13 12 12 11 10 10 11 11 9 8 6 6 6 5 6 5 4 4 5 5 5 4 5 4 3 3 5 7 8 7 6 6 8 9 9 9 9 8 8 8 9 9 10
3 4 4 4 4 5 6 6 7 7 7 7 8 8 8 8 9 10 11 12 12 13 15 15 15 15 16 18 19 21 22 22 22 22 21 21 22 21 19 18 18 17 16 14 13 11 10 10 11 11 10 9 8 7 6 6 6 5 5 5 6 6 6 5 6 5 4 4 4 7 8 8 7 7 9 10 9 9 8 7 7 7 7 7 8
3 4 4 4 4 5 6 6 7 7 7 7 7 8 8 9 9 10 11 12 13 14 15 15 16 16 17 18 19 20 21 22 23 23 22 22 22 23 23 22 20 18 17 17 16 13 11 11 11 12 11 10 9 8 8 8 7 6 6 6 6 7 7 6 6 6 6 6 6 7 8 8 8 9 10 11 10 9 8 7 7 7 5 5 6
4 4 4 5 5 5 6 7 7 8 8 8 8 9 9 9 9 11 11 12 13 14 14 15 17 17 18 18 19 19 20 21 22 22 22 22 22 24 25 25 23 20 20 20 19 15 12 11 11 12 12 11 10 10 10 9 9 8 7 7 7 8 8 7 6 6 6 7 7 8 9 9 9 10 11 12 11 9 8 8 7 6 5 4 5
5 5 5 6 6 6 7 8 9 9 9 9 9 9 10 10 10 11 13 13 14 14 15 16 17 18 18 18 19 20 21 21 22 22 23 23 23 24 26 27 26 24 23 22 21 17 14 13 13 13 13 12 11 11 11 11 11 10 9 8 8 8 8 8 7 7 7 7 7 8 9 10 10 11 12 11 11 10 9 8 7 7 5 4 4
7 8 8 8 8 7 7 8 9 9 9 8 8 9 10 11 11 12 13 14 15 15 16 16 17 18 18 17 18 20 22 22 22 22 23 23 24 24 25 26 27 26 24 22 22 20 16 15 15 14 14 13 12 12 12 12 12 11 10 10 9 9 9 9 8 8 8 8 7 9 10 11 11 12 12 10 10 10 10 9 8 7 6 5 5
8 9 9 9 9 8 8 9 10 10 9 9 8 9 10 11 12 13 14 14 15 16 17 17 17 18 18 18 18 20 21 22 23 23 23 23 24 24 24 25 26 27 25 24 24 22 19 17 17 17 16 14 13 13 13 13 14 13 12 11 10 9 10 10 9 9 9 9 8 10 12 12 12 13 13 11 10 10 9 8 8 8 7 7 6
10 10 10 10 10 11 11 11 10 10 10 10 10 10 11 11 12 13 14 14 15 16 16 17 18 19 20 19 19 19 20 21 22 23 24 24 24 24 24 24 25 26 27 26 26 25 21 19 19 19 17 16 14 15 15 15 15 16 14 13 12 10 11 10 9 10 9 9 9 10 13 13 12 14 14 12 11 11 10 9 7 8 7 7 6
11 11 11 11 11 12 12 11 11 10 10 11 11 12 12 13 13 14 14 15 15 15 15 16 18 20 21 22 21 20 20 20 20 21 23 23 24 24 25 25 25 26 26 27 27 26 22 20 22 22 19 18 17 16 17 17 17 18 16 15 14 11 12 11 9 10 10 9 10 11 13 14 13 15 16 14 12 12 11 9 7 7 7 8 7
10 10 11 11 12 12 12 12 11 11 11 11 11 12 12 13 14 15 15 16 16 15 15 16 17 19 21 23 24 22 22 22 21 21 20 20 20 22 23 25 26 26 26 28 28 28 25 22 25 25 22 20 20 18 19 19 19 19 18 18 16 12 13 13 11 12 12 10 10 11 13 13 13 15 16 14 13 13 11 9 8 8 8 8 8
10 10 11 12 12 13 13 13 13 12 12 12 11 11 12 13 14 15 16 16 17 16 15 15 16 18 19 20 23 25 26 25 23 22 21 21 21 20 20 21 23 25 27 29 30 30 28 26 28 29 25 22 22 21 20 21 21 21 20 20 19 16 15 16 14 13 14 13 11 11 13 13 14 15 14 14 14 13 11 8 9 9 8 9 9
11 11 11 12 13 13 13 14 14 13 13 12 12 12 12 13 13 14 15 16 17 17 17 16 16 16 16 18 21 21 20 21 25 26 26 26 24 21 20 20 21 23 25 28 30 31 30 29 30 31 29 25 24 23 22 22 22 22 22 21 21 19 18 18 17 16 16 16 14 11 12 13 14 16 15 15 16 14 11 9 9 9 9 10 10
13 13 12 12 13 13 13 14 14 14 13 12 12 13 13 13 13 14 14 14 15 16 17 17 16 16 16 16 16 14 16 21 27 29 27 26 25 23 24 25 23 22 23 26 27 30 31 31 32 33 31 27 26 25 24 23 23 23 23 23 22 21 20 19 19 19 18 19 17 13 11 12 14 17 17 16 16 15 12 11 10 9 9 10 11
15 15 14 14 14 14 14 14 15 15 15 14 14 15 15 15 14 14 14 14 15 16 17 18 18 19 18 18 16 16 21 25 25 26 28 28 27 27 27 26 24 23 23 25 26 28 30 32 33 33 31 29 28 27 26 25 24 24 24 24 23 23 23 21 21 22 21 21 20 16 12 11 13 17 18 17 17 15 15 13 11 10 11 11 12
17 17 16 16 16 17 17 16 16 16 17 17 18 17 17 17 16 16 16 17 17 18 19 20 21 21 21 20 20 21 23 23 23 25 29 30 29 28 28 27 26 26 26 26 27 27 30 32 34 33 31 31 31 28 27 27 25 25 24 24 24 24 24 23 22 22 22 22 21 19 15 12 12 16 17 16 16 16 16 15 12 11 11 12 13
20 20 18 17 18 18 19 18 18 17 18 18 18 19 19 19 19 18 19 19 20 21 20 21 21 22 21 20 22 25 24 23 24 24 27 31 32 30 30 30 28 28 29 29 28 28 29 31 34 35 33 32 32 31 29 29 27 26 25 25 25 25 24 25 24 23 21 22 22 22 20 15 12 14 15 14 15 17 16 15 13 12 12 12 13
22 21 19 19 19 19 19 19 19 19 19 19 19 19 20 20 20 20 21 21 21 22 22 22 21 21 22 23 26 29 28 26 25 24 25 30 33 32 31 31 30 31 30 30 29 28 29 31 33 35 35 33 33 33 32 30 28 27 26 25 26 26 25 25 25 24 23 23 24 24 22 18 14 14 14 14 16 17 17 15 13 12 12 13 14
23 21 20 19 19 19 19 19 20 20 20 20 21 21 21 21 21 22 22 23 23 22 23 24 24 24 25 26 27 28 30 30 28 26 26 28 32 33 32 31 32 34 34 31 30 28 29 31 32 35 36 34 35 35 34 32 30 28 26 25 26 26 27 26 26 26 24 23 25 27 24 20 18 16 14 16 18 18 17 15 14 13 13 14 16
21 21 20 20 20 20 20 20 20 21 21 22 23 23 24 24 23 23 23 24 25 25 25 26 26 27 26 24 25 28 29 31 30 29 29 30 32 34 34 34 33 34 35 33 31 29 28 28 31 34 35 35 36 37 35 34 31 28 26 26 26 27 27 27 27 27 26 24 24 27 27 23 21 19 16 16 20 20 18 17 15 13 14 16 18
16 17 17 17 18 19 19 20 20 21 21 22 23 24 25 25 25 25 25 26 27 27 28 27 27 27 26 25 26 28 28 29 29 30 31 31 31 32 34 35 35 35 34 32 32 30 29 29 29 34 35 35 36 36 36 35 33 29 28 27 26 27 28 28 28 28 28 26 24 25 28 27 24 22 18 17 20 22 20 18 17 15 15 17 19
14 16 16 15 17 18 20 21 22 23 24 25 26 26 26 27 27 27 27 27 27 27 27 26 25 25 25 24 24 24 26 26 28 31 32 31 30 30 32 34 35 35 33 31 31 30 30 29 29 33 36 36 37 37 38 38 35 32 30 28 28 29 29 29 29 29 29 28 26 25 27 28 27 25 22 18 19 23 23 20 19 16 16 19 21
15 17 18 18 19 20 21 23 24 25 26 27 28 28 27 27 26 26 26 26 26 26 26 24 23 21 21 22 23 24 25 25 25 28 29 30 31 30 33 36 36 35 33 31 31 30 30 28 28 31 34 36 37 38 40 40 37 34 31 29 29 30 30 30 30 30 30 29 28 27 25 27 29 28 26 21 18 22 24 23 20 19 18 20 23
15 17 18 19 19 20 21 22 23 24 25 27 28 29 27 25 24 23 23 24 24 25 25 24 23 22 20 21 23 24 25 24 25 27 26 27 30 31 31 35 36 34 32 32 31 32 31 29 27 29 32 34 36 37 38 37 35 34 32 30 30 32 33 32 31 31 30 29 29 29 26 26 28 29 28 24 20 20 23 23 22 20 19 21 24
13 15 17 19 19 20 21 22 24 25 27 28 29 30 29 27 25 24 24 25 26 25 25 25 24 24 23 22 23 23 24 24 25 28 28 27 30 30 28 30 33 31 28 29 30 32 33 30 28 28 30 33 34 35 35 35 34 33 33 32 32 34 35 34 33 32 31 30 29 30 29 27 28 30 29 27 23 21 22 23 22 21 21 23 25
11 13 15 17 18 20 21 23 24 26 27 27 28 28 28 27 26 26 26 26 26 25 25 25 25 25 25 25 24 23 23 24 24 26 28 28 30 30 27 26 29 30 29 28 29 32 33 31 28 28 29 30 32 33 34 34 34 34 35 34 34 34 35 36 36 34 33 31 29 30 30 29 29 30 31 31 27 23 21 23 23 22 22 24 26
12 13 14 15 17 19 20 22 23 24 25 25 26 26 26 25 25 25 26 26 25 23 23 25 25 26 27 26 25 24 24 24 23 24 26 27 28 27 25 25 27 30 32 31 31 33 32 31 30 28 28 29 30 31 31 31 32 33 35 35 35 35 34 36 37 35 34 32 30 30 30 31 31 31 32 32 30 26 22 22 24 24 23 25 28
13 13 13 14 16 18 19 21 22 23 24 24 25 25 25 25 24 24 24 24 24 24 23 24 26 26 27 27 25 24 24 25 24 23 25 27 27 25 24 25 26 29 31 31 34 35 33 32 31 28 29 30 29 29 29 29 29 32 34 34 35 34 33 36 37 35 34 33 30 30 30 31 32 32 32 33 32 29 23 21 24 25 24 27 29
14 14 14 15 16 18 19 21 22 23 24 25 25 26 25 25 25 24 24 23 24 24 24 24 25 26 27 27 26 24 24 26 25 24 24 26 27 25 23 24 25 27 29 30 33 35 34 32 30 28 28 29 28 29 30 28 27 29 32 33 34 33 33 36 37 36 35 33 31 30 30 32 33 33 34 33 32 31 26 22 25 26 25 27 30
15 15 15 16 17 19 20 21 23 24 25 26 26 26 26 26 25 25 25 24 24 24 24 24 24 25 26 27 26 24 23 25 26 25 25 26 26 26 25 25 25 27 28 29 32 35 35 34 32 29 27 26 26 29 31 30 27 27 31 34 34 34 34 35 37 37 36 33 32 31 31 32 33 34 34 33 32 31 28 25 25 27 26 28 31
16 16 16 17 18 19 20 21 22 24 25 26 27 28 28 27 27 26 25 25 25 24 24 24 24 24 24 25 24 24 23 25 26 26 26 26 24 24 25 25 26 27 27 28 30 33 36 36 33 30 26 25 26 27 29 30 28 27 30 34 35 35 35 35 37 37 36 33 31 32 32 32 33 34 34 33 32 32 30 26 26 28 28 29 32
17 17 17 17 18 19 20 21 23 24 25 26 27 28 28 29 28 28 27 26 25 25 25 25 24 23 23 23 23 24 25 25 27 28 27 26 24 22 22 23 25 26 28 29 29 32 36 36 32 27 25 26 27 26 25 26 27 27 28 31 33 34 35 35 36 37 35 32 31 31 33 32 32 33 34 33 32 32 31 27 26 28 29 30 33
17 17 18 18 19 20 21 23 24 25 26 27 27 28 28 29 29 30 30 29 28 27 27 26 26 24 24 23 23 24 25 25 27 29 28 26 24 23 23 23 24 25 27 28 30 32 36 35 29 26 25 25 25 26 25 24 26 26 25 26 30 32 33 33 35 37 34 31 29 30 31 32 32 33 34 33 32 32 31 28 26 29 31 32 34
18 19 19 20 21 22 23 25 25 26 27 28 28 29 29 30 30 30 30 31 31 30 29 28 27 26 25 24 24 25 26 26 26 28 28 25 24 23 24 24 23 23 24 25 27 30 34 34 28 25 25 24 24 25 27 26 26 26 25 25 28 31 34 34 35 38 36 32 29 28 29 30 31 33 34 33 32 32 31 28 27 29 32 33 35
20 21 22 22 23 24 25 25 26 26 27 28 29 30 31 31 31 31 30 30 31 31 31 30 29 28 26 25 25 26 28 28 27 27 27 26 24 23 24 24 23 21 22 22 23 25 28 31 29 26 24 24 23 25 27 28 27 27 26 27 29 31 35 36 37 40 39 35 31 30 29 30 31 33 34 34 33 32 30 28 28 30 33 34 36
21 22 23 23 24 25 25 25 26 26 27 28 29 30 31 32 32 32 32 31 31 31 31 31 30 29 28 26 25 25 27 28 29 29 28 28 26 24 24 25 26 24 22 21 21 22 24 26 29 29 25 24 25 25 26 26 27 29 28 28 30 32 35 37 39 41 41 38 34 32 31 31 32 34 35 34 33 32 30 28 29 31 34 35 37
22 22 23 23 24 24 25 25 26 26 27 29 30 31 31 32 32 33 33 32 32 31 31 31 31 30 28 26 25 25 26 27 29 30 29 29 29 26 25 25 27 27 26 23 21 22 25 25 27 28 26 26 27 27 25 26 28 31 31 30 30 32 35 37 39 42 42 40 38 35 33 32 33 34 35 35 34 32 30 29 30 32 34 36 37
22 22 22 22 23 23 24 24 25 26 27 28 29 30 31 32 32 33 33 33 33 33 32 31 31 31 30 28 26 25 25 26 27 28 29 29 29 29 28 27 27 27 27 26 24 23 25 27 27 27 27 28 29 29 29 30 31 32 31 31 31 30 33 37 40 43 44 42 40 38 36 35 35 36 37 38 37 34 32 30 31 34 36 37 38
21 21 21 21 22 23 23 24 25 26 26 27 27 27 28 30 32 33 34 34 35 35 34 33 33 32 32 31 28 26 25 26 26 27 27 28 28 29 29 28 27 27 28 28 28 24 24 27 29 29 30 30 31 32 33 33 31 30 31 32 34 33 33 36 40 43 44 44 43 41 39 37 37 39 40 40 39 37 35 34 34 35 37 37 38
21 21 21 21 22 23 24 25 25 26 26 26 26 26 27 28 30 32 33 34 35 36 37 36 35 34 33 32 31 29 28 28 28 28 28 28 28 29 30 29 28 27 26 27 29 27 25 26 28 30 32 33 32 32 34 34 33 31 31 33 36 37 37 39 41 42 44 45 44 44 42 40 38 40 41 42 41 39 38 36 36 36 37 37 38
22 22 22 22 22 23 23 24 24 25 25 26 26 27 27 27 28 30 32 33 35 36 37 38 37 37 36 34 33 31 30 29 30 30 30 30 29 29 29 30 30 28 26 25 28 29 28 26 27 30 32 32 32 32 33 34 34 33 33 34 36 38 39 41 42 42 42 43 45 46 44 42 40 40 41 42 42 41 39 37 37 37 37 38 38
23 22 22 22 22 22 23 23 24 24 25 25 26 27 28 28 28 29 32 33 34 35 36 37 37 38 38 37 35 33 32 31 31 31 32 32 31 30 29 29 30 29 27 25 25 27 28 27 27 30 31 31 32 33 32 32 33 34 35 37 38 38 39 41 41 40 39 40 46 48 46 44 43 43 43 43 42 41 39 37 37 37 38 38 38
24 24 23 23 23 23 23 24 24 25 25 25 26 27 28 29 29 30 32 34 34 34 35 36 36 37 38 38 37 36 34 33 33 33 33 34 33 32 31 30 29 30 30 28 26 27 28 28 27 28 30 31 31 31 29 28 30 32 35 36 37 38 39 38 39 40 38 39 45 48 48 47 45 44 43 42 41 40 39 38 38 38 38 38 38
25 25 24 24 24 24 23 23 24 24 24 24 25 26 28 29 30 31 33 35 35 35 36 36 35 36 37 38 37 37 37 35 34 34 34 35 35 34 33 31 29 29 30 29 27 28 29 29 29 27 27 28 30 30 28 27 27 28 29 31 33 35 36 37 39 40 39 40 44 47 48 49 47 45 43 42 40 40 40 39 38 38 38 38 38
25 25 25 25 25 24 24 23 24 24 24 24 25 26 28 29 30 32 34 37 38 38 37 36 35 35 37 38 38 37 37 37 36 35 35 35 36 35 34 32 30 28 27 27 26 27 29 29 29 28 25 25 27 28 28 27 26 25 26 29 33 36 38 39 40 40 40 41 44 46 49 50 49 45 43 42 41 40 40 39 38 38 38 38 37
26 26 27 27 27 26 25 25 25 25 24 24 24 26 28 29 30 33 37 39 40 39 37 36 35 35 36 37 37 37 37 36 36 35 36 36 37 38 38 35 32 29 27 26 25 25 26 28 29 28 26 25 25 26 28 28 27 26 27 31 36 38 39 40 41 40 41 42 45 47 48 49 47 44 42 41 41 41 40 39 38 38 38 38 37
27 27 27 28 28 28 28 27 26 26 25 24 24 26 28 29 32 35 39 41 42 42 39 37 36 36 36 36 36 36 36 35 34 34 34 35 37 39 40 38 36 33 30 28 27 24 24 27 27 26 25 24 25 26 28 30 29 29 30 32 33 36 39 41 40 40 41 42 43 44 46 47 44 41 39 39 39 40 40 39 38 38 38 38 38
26 27 28 28 29 30 30 29 28 27 26 25 24 25 27 30 32 35 38 41 44 44 41 38 37 36 36 36 36 36 35 34 33 31 32 33 34 36 37 38 38 37 35 32 30 25 23 24 25 24 22 22 23 24 26 29 30 30 30 29 30 33 38 39 39 39 41 43 43 42 45 46 45 43 41 40 41 41 40 39 39 39 39 39 38
Wind_Direction
314 309 307 311 312 308 304 299 300 301 291 281 277 287 291 280 267 256 252 245 232 226 227 230 234 240 248 256 261 264 268 270 270 271 276 282 290 302 308 311 313 317 325 333 338 336 327 312 305 307 297 290 293 295 298 308 308 300 301 288 243 171 168 152 133 124 118 120 115 111 108 107 112 111 106 105 102 100 101 100 99 99 99 100 104
306 301 296 296 294 289 287 283 287 291 289 282 269 269 274 279 277 266 258 252 246 238 234 233 233 236 245 255 260 264 269 271 271 272 277 282 286 293 297 301 304 307 315 323 329 331 323 309 300 300 292 282 273 275 288 302 305 296 292 267 228 193 194 184 154 140 137 133 129 132 121 110 115 120 118 114 110 106 104 102 102 102 103 102 100
298 298 296 292 290 284 280 278 282 286 287 282 272 263 259 264 272 273 266 257 252 248 246 243 241 244 249 256 260 262 267 272 275 276 279 283 283 283 282 286 290 295 304 312 318 322 319 305 295 290 286 281 265 265 282 294 294 291 285 252 218 202 202 199 183 167 166 157 148 151 135 120 122 125 122 117 112 108 105 103 103 102 104 106 106
289 293 294 292 290 287 287 289 292 293 292 285 278 268 259 259 263 269 271 266 261 257 260 259 256 255 256 260 263 265 267 271 277 278 279 281 280 276 271 272 276 280 289 296 304 311 312 301 289 282 279 276 262 259 273 283 283 283 273 241 213 206 207 203 200 193 186 174 161 161 147 134 134 132 127 120 113 105 100 97 96 100 103 106 109
287 292 294 298 298 298 300 303 304 302 300 293 288 284 275 268 264 267 268 268 268 266 269 270 269 267 265 265 266 269 271 272 276 279 280 280 277 274 270 269 269 271 277 282 288 296 301 297 285 278 273 268 260 261 267 275 276 270 251 230 217 213 213 208 203 202 198 185 168 163 153 144 146 146 138 129 120 109 104 103 97 97 103 106 106
286 293 300 308 308 310 313 313 312 309 306 301 296 293 289 286 280 276 274 273 273 272 274 275 275 275 274 272 270 272 273 274 276 277 278 278 275 272 268 268 268 269 273 277 281 284 287 287 281 274 265 253 254 263 262 264 265 260 246 229 225 222 222 220 209 206 204 195 181 170 162 157 157 160 150 137 129 122 121 122 116 112 112 111 109
295 305 312 318 315 320 322 317 315 311 310 310 306 301 296 293 288 285 282 278 277 276 276 278 278 279 279 277 275 275 276 278 279 279 278 275 272 268 265 267 265 265 271 276 276 274 274 275 273 270 260 244 245 258 259 257 252 249 247 234 233 230 224 223 214 210 211 202 194 186 175 169 167 165 154 142 137 136 139 139 137 140 138 124 115
302 311 315 312 309 315 317 311 307 306 308 310 312 308 300 293 289 287 283 280 278 278 279 281 282 282 282 280 279 279 279 280 282 282 280 278 274 268 265 264 262 263 270 274 270 262 261 265 263 262 259 247 242 250 254 249 240 241 246 238 239 237 223 217 215 215 214 202 196 196 188 178 174 167 155 146 146 147 150 152 154 159 160 139 120
289 295 301 302 306 309 306 304 303 302 303 306 307 302 297 292 288 285 284 284 283 283 285 285 286 285 283 281 280 280 280 282 282 282 281 279 278 273 269 265 263 267 270 270 264 253 249 253 256 253 253 248 242 246 248 244 238 240 248 243 240 237 227 217 215 216 208 201 197 200 196 184 176 167 158 154 151 155 162 166 170 173 171 156 134
291 289 289 296 311 315 307 306 305 302 299 298 296 292 291 289 288 287 287 290 291 292 292 290 289 286 284 282 281 281 282 283 282 280 279 278 277 277 274 269 265 267 269 267 259 250 244 244 248 247 246 244 241 242 244 241 239 242 248 248 240 234 232 220 215 212 203 204 203 200 198 188 177 167 162 163 160 163 174 182 188 187 176 163 149
297 294 293 304 318 320 314 310 306 303 302 301 297 292 288 288 289 289 288 289 292 294 296 297 295 292 291 288 286 285 284 284 284 281 278 276 275 275 275 272 267 267 268 266 257 248 241 238 242 244 244 242 241 240 240 237 235 239 245 247 239 232 235 224 214 211 202 208 208 200 196 187 180 171 166 172 172 171 186 193 191 185 172 161 155
308 309 310 315 317 317 316 313 309 308 310 311 308 304 301 300 299 296 293 290 289 292 297 299 298 297 297 296 293 290 288 286 285 284 282 278 276 274 274 273 271 270 269 265 258 248 242 240 239 240 242 241 240 239 239 237 232 234 240 245 238 230 236 229 215 214 211 214 212 203 194 186 183 176 170 177 180 179 195 205 192 178 166 158 156
314 314 312 311 308 309 311 312 312 311 310 310 309 308 311 314 313 310 306 302 299 299 300 303 304 303 303 302 298 295 293 291 288 287 286 283 280 276 274 272 271 271 269 265 260 255 254 251 243 240 239 238 238 237 237 236 232 231 233 240 238 227 232 232 220 220 224 224 218 206 195 190 188 180 174 180 186 190 204 214 199 178 165 162 162
319 313 308 307 305 305 308 311 313 311 309 308 306 306 307 309 310 310 310 308 307 307 307 308 305 306 309 307 305 305 303 301 299 297 294 292 288 282 278 274 271 270 270 267 264 262 260 256 250 246 241 236 234 235 236 235 234 233 228 233 236 226 224 227 220 219 225 234 227 209 199 197 192 182 178 183 190 198 208 208 197 183 172 170 169
330 323 316 311 307 306 307 310 312 310 310 309 305 302 300 301 302 302 302 301 302 303 304 303 303 310 315 311 310 310 308 308 309 308 307 305 299 292 286 282 278 273 269 267 265 263 257 252 251 248 243 237 234 232 236 237 236 235 229 230 233 226 219 220 218 215 220 232 233 214 203 201 193 185 186 190 194 200 206 201 194 188 178 177 176
338 335 328 320 313 311 309 310 310 309 310 309 307 305 303 304 302 299 298 298 301 302 302 305 310 315 314 309 309 305 302 309 311 307 307 306 301 298 294 291 287 278 270 266 264 263 257 251 249 247 243 238 232 230 235 237 236 235 232 230 232 229 220 217 218 215 217 225 229 220 209 205 197 190 193 198 197 200 207 203 195 190 183 183 182
332 331 330 326 322 319 317 315 313 311 310 309 307 307 307 308 307 307 306 305 305 304 302 303 305 305 301 303 306 301 300 308 308 305 304 303 300 296 294 292 289 282 274 268 264 261 257 252 249 247 245 238 230 228 232 235 234 233 232 230 231 232 224 217 218 218 217 219 225 226 213 209 205 196 197 202 200 204 211 206 198 193 190 191 188
322 320 319 318 318 318 319 318 316 314 312 311 309 307 307 307 307 308 308 306 304 302 299 298 297 295 292 293 294 294 299 304 304 303 301 299 296 295 295 293 290 286 278 271 265 261 257 253 250 248 246 237 230 228 229 232 233 232 233 232 231 231 226 220 219 221 218 214 221 229 221 216 212 203 204 205 203 209 210 202 199 195 193 197 193
316 315 311 308 308 308 308 309 309 309 308 308 307 306 304 303 303 303 304 305 304 302 301 301 300 301 302 302 300 297 298 300 300 299 299 297 294 292 292 290 288 284 279 275 268 261 258 255 251 249 245 235 231 230 229 230 232 232 234 234 232 231 228 224 222 223 221 213 216 226 228 224 215 208 209 206 204 206 203 199 199 197 196 200 195
308 308 307 306 306 305 304 303 301 301 301 303 305 305 304 303 304 305 306 307 308 307 306 305 308 315 314 307 302 300 297 295 294 293 294 294 292 290 288 288 288 283 279 278 271 262 259 257 253 250 244 235 231 232 230 229 230 231 233 234 233 232 230 227 223 223 222 217 216 221 226 226 216 212 212 204 201 200 196 198 199 196 199 200 194
298 299 300 302 304 305 304 302 299 299 300 302 303 304 304 304 305 306 308 309 311 311 310 307 308 309 305 302 304 304 303 301 296 292 290 289 289 290 289 290 288 284 281 280 276 269 263 259 256 252 247 238 232 232 231 229 229 230 232 234 234 232 230 227 224 223 221 220 219 217 219 222 213 211 213 204 200 199 195 198 199 197 201 199 192
290 291 293 297 299 300 300 299 299 300 302 303 303 302 301 302 303 305 307 309 311 311 309 308 306 304 304 309 309 306 306 303 298 296 291 285 285 287 288 287 285 285 285 283 281 278 270 262 256 252 249 242 234 231 231 230 229 229 230 233 234 232 229 226 223 223 223 224 221 213 213 218 212 209 214 206 202 203 200 199 198 198 201 197 190
289 287 289 292 294 296 296 297 298 300 301 302 302 301 301 301 302 304 305 307 308 308 306 305 305 304 304 302 295 292 294 294 294 294 289 285 284 285 287 287 284 284 286 286 286 284 276 267 257 250 247 243 236 231 231 232 230 228 229 232 234 232 229 226 223 223 224 225 221 213 211 216 214 211 214 210 205 206 205 201 199 200 201 195 189
302 298 297 298 299 300 301 301 302 303 303 304 304 303 303 303 303 303 303 303 303 304 304 304 304 303 301 297 294 295 296 296 296 293 288 287 285 283 287 288 283 283 287 285 283 281 275 270 262 252 246 242 237 230 230 232 230 228 228 230 232 232 229 226 224 222 223 224 221 217 214 214 214 214 217 217 211 208 207 206 201 200 201 195 189
320 313 312 316 315 314 313 311 310 310 309 308 307 305 304 304 304 302 301 300 300 300 302 304 303 302 302 302 303 303 301 300 299 294 291 290 284 280 289 290 282 281 285 283 279 278 274 270 264 256 248 243 238 231 228 230 229 227 227 228 230 230 228 226 225 223 222 222 222 221 218 213 212 213 215 218 217 211 209 208 205 201 201 195 190
318 313 316 323 323 320 320 318 317 316 314 313 311 309 306 304 302 301 300 298 297 298 301 302 303 302 303 301 299 297 296 296 297 296 295 290 284 281 287 288 282 279 281 281 278 275 273 271 266 256 247 241 236 231 229 228 228 228 228 229 230 229 227 225 225 224 222 221 220 220 219 214 211 211 211 213 219 217 211 210 209 203 201 196 191
328 323 325 327 326 325 325 324 322 319 317 316 316 315 313 310 306 302 300 300 299 300 301 302 305 307 307 304 300 299 300 300 300 297 294 293 291 287 286 284 278 275 277 278 276 274 274 274 269 257 245 237 233 231 231 229 229 230 230 230 231 230 226 224 224 224 223 221 220 218 216 213 211 212 213 214 217 220 215 212 212 207 202 197 193
337 332 330 330 329 328 325 323 320 318 318 318 317 317 317 315 312 308 306 306 307 308 308 307 307 308 306 305 305 304 303 301 299 297 295 296 295 290 288 284 277 272 274 275 271 272 273 271 267 257 244 236 232 232 234 233 232 233 232 231 231 230 225 221 222 224 223 221 220 219 215 213 212 212 214 216 216 219 217 214 214 210 204 199 195
338 333 332 332 330 327 325 324 323 324 326 327 326 325 324 321 317 313 312 311 311 313 314 314 313 312 308 307 308 309 307 302 299 299 299 297 294 289 284 284 282 276 273 270 268 270 272 270 265 253 240 233 231 231 233 235 235 234 233 231 230 229 224 219 219 222 222 220 219 220 217 213 213 212 213 217 215 214 216 216 215 212 207 201 197
345 338 335 333 330 328 329 331 332 334 335 337 338 338 338 334 327 319 314 312 313 314 315 315 314 313 311 310 311 312 313 309 301 298 299 298 295 291 282 281 285 280 275 272 271 271 270 268 266 253 237 230 228 228 231 233 234 233 232 230 228 227 223 219 220 221 221 220 218 220 219 215 214 214 215 218 217 214 216 218 217 213 209 203 198
353 348 343 338 334 333 335 337 339 341 341 343 344 343 344 342 338 331 322 315 312 312 313 313 313 313 312 313 314 312 314 316 309 301 299 297 296 294 286 282 282 278 277 274 270 270 269 266 264 255 242 236 230 228 231 233 235 233 230 228 225 225 222 219 220 221 221 220 218 219 219 216 216 216 217 221 220 219 220 220 217 214 210 205 200
359 357 350 344 341 339 341 342 343 343 343 344 344 344 344 344 343 340 334 326 318 312 311 311 312 313 314 315 316 315 315 317 316 309 303 299 296 293 289 287 283 277 275 271 267 269 269 263 259 252 247 245 237 231 231 234 235 233 229 226 224 222 221 219 220 221 221 220 218 219 219 216 216 217 219 221 221 221 223 221 216 213 209 206 201
1 359 354 350 349 347 347 346 346 347 347 347 347 347 348 347 346 343 340 336 330 322 315 312 312 314 316 318 319 318 316 314 314 311 305 301 297 292 290 290 287 280 274 269 265 267 267 261 254 250 250 250 243 236 235 234 233 230 227 225 222 221 221 219 219 220 220 219 218 219 219 217 216 217 219 222 221 221 223 222 216 212 208 205 202
12 8 4 1 358 355 353 353 353 353 352 352 352 352 351 350 349 347 344 340 337 332 326 319 316 315 317 320 321 319 315 311 310 308 305 302 299 295 292 289 286 280 275 269 265 265 265 260 254 251 252 251 244 237 234 232 230 228 227 225 223 222 222 220 218 216 217 217 216 217 218 217 216 217 219 221 220 220 223 222 217 212 208 204 203
22 17 14 10 6 2 359 358 357 357 356 356 356 355 354 353 352 351 349 346 343 339 334 327 321 318 318 320 321 319 314 310 308 307 304 301 299 296 293 291 289 282 277 275 272 267 262 259 254 251 250 250 243 233 229 230 230 231 232 229 226 225 224 221 215 212 212 213 213 214 216 217 217 217 219 220 218 219 221 221 216 212 207 204 203
24 21 17 13 10 6 4 2 0 359 359 358 357 357 357 356 355 353 351 349 348 345 340 335 330 324 320 320 321 320 317 312 308 306 303 298 297 296 294 293 291 287 283 279 278 272 262 256 252 249 249 251 245 233 228 228 229 231 233 232 229 227 225 220 213 209 209 210 212 213 214 216 217 217 217 218 217 218 221 221 217 212 207 203 203
28 25 22 19 16 13 10 7 4 2 1 360 359 360 360 359 358 355 352 350 349 348 346 343 339 333 327 323 321 320 320 317 312 309 305 299 295 295 296 293 290 291 290 285 282 275 261 252 249 248 249 251 246 236 229 228 229 230 231 231 231 229 226 220 213 210 209 208 211 214 215 217 217 216 215 215 216 218 220 221 218 212 206 203 203
33 30 27 24 21 19 16 12 9 6 4 2 2 3 2 2 0 358 355 352 349 349 349 348 345 341 336 329 324 321 320 320 318 316 313 306 298 293 295 296 293 291 290 287 288 281 265 256 254 252 248 247 246 239 232 231 232 232 230 230 231 231 228 222 216 213 211 209 211 214 215 216 216 214 214 214 215 217 220 220 218 212 206 204 203
36 33 30 26 23 20 18 15 13 10 7 4 4 5 5 4 3 0 358 355 351 349 347 347 347 345 342 337 330 325 322 322 322 320 318 314 309 302 299 298 295 292 288 285 286 285 277 266 260 256 250 246 248 247 240 236 234 235 234 230 229 230 229 225 220 216 213 211 212 215 217 216 214 212 213 213 214 217 218 219 217 211 205 204 204
34 32 30 27 24 21 19 16 14 11 8 7 7 6 5 5 5 2 0 357 354 350 347 345 345 344 344 341 336 331 328 325 324 323 321 318 314 311 306 299 294 291 289 285 281 281 281 274 266 261 254 246 246 248 246 240 234 233 234 233 231 230 228 226 222 218 215 212 212 215 216 216 213 211 212 213 215 216 217 216 216 211 206 204 204
33 31 29 27 24 22 20 17 15 12 10 10 11 8 5 5 4 3 2 360 357 354 349 345 343 341 341 341 340 335 330 325 321 320 321 320 318 316 312 306 298 292 290 287 283 279 278 275 271 266 258 249 245 244 243 241 237 236 236 234 233 232 230 228 224 220 217 215 214 214 214 214 212 209 210 212 214 215 215 214 214 210 206 205 204
32 30 28 26 24 22 20 17 16 14 12 13 13 9 5 4 3 2 2 1 0 359 355 351 346 342 340 339 338 335 329 324 320 316 314 314 315 315 312 310 305 298 293 289 287 284 278 273 270 265 258 251 246 243 242 243 241 239 236 234 232 230 230 229 225 221 219 217 217 217 215 213 212 210 209 210 213 214 212 211 210 209 207 205 205
31 29 27 25 24 21 19 16 14 13 12 12 11 8 6 5 3 2 1 1 1 1 359 357 353 348 344 340 338 336 332 329 325 321 316 312 310 308 305 304 305 304 300 294 290 288 282 274 270 266 259 254 250 245 243 243 243 239 237 236 232 226 225 225 223 221 220 219 217 217 215 213 213 213 211 210 213 213 211 208 208 208 207 206 205
31 28 26 24 23 21 18 15 13 11 10 9 9 7 6 5 3 2 2 1 1 0 360 359 356 353 350 345 341 338 336 333 329 324 320 316 312 309 303 298 296 298 299 296 291 289 285 278 271 266 262 260 258 252 245 242 243 241 239 238 235 228 225 225 224 223 222 219 216 216 215 213 214 215 214 213 214 213 210 208 207 208 207 207 207
30 28 27 24 22 20 17 15 12 10 9 7 6 7 6 5 3 3 2 1 1 0 360 358 357 356 354 350 346 343 340 337 333 328 325 321 318 314 310 302 295 292 291 289 285 284 283 280 273 266 263 263 261 257 252 246 243 242 239 237 235 232 229 229 229 229 227 222 217 215 214 213 214 216 216 214 215 214 212 209 208 208 208 208 208
30 29 27 25 23 21 18 15 11 9 7 4 3 4 4 4 3 3 3 2 2 1 1 359 358 357 355 353 351 349 345 341 338 335 331 327 324 321 317 312 304 296 293 290 284 278 276 276 273 267 263 261 260 260 258 251 246 245 241 238 235 233 232 232 233 232 231 228 222 216 212 212 213 215 217 216 215 215 214 211 209 209 209 209 209
30 29 27 26 25 23 20 17 12 10 7 3 2 3 2 1 1 1 2 2 2 1 0 360 360 359 357 356 354 352 349 346 343 341 336 332 329 326 322 318 312 305 301 299 291 281 275 273 271 270 266 260 257 258 258 254 250 249 248 246 243 237 233 232 231 229 229 229 225 218 213 212 212 213 216 217 216 216 216 213 210 210 210 209 210
32 30 29 28 27 25 23 19 15 11 7 4 3 2 359 358 358 359 0 0 359 360 0 0 1 1 360 358 355 352 350 348 346 344 341 336 332 330 326 321 318 312 307 305 298 285 278 274 271 269 268 265 260 256 255 253 252 252 250 245 239 231 227 226 226 227 227 227 224 220 215 212 211 211 213 214 216 218 218 215 212 210 210 210 211
34 32 31 30 30 29 26 21 18 14 9 6 5 2 359 360 0 0 1 0 359 0 2 2 2 2 1 359 356 353 351 349 347 344 342 340 337 335 332 328 324 319 313 308 301 288 277 273 270 267 266 266 262 255 253 252 251 250 245 237 231 228 224 220 220 224 226 225 223 220 215 212 211 211 211 211 215 219 220 217 214 212 211 211 212
35 33 32 32 32 32 29 25 21 17 11 8 7 6 5 6 6 4 2 1 1 3 3 3 3 2 1 360 357 354 351 349 346 344 342 341 339 339 338 335 331 328 323 317 310 297 280 270 267 265 264 264 261 254 250 249 248 248 245 239 234 231 226 221 220 223 224 224 224 220 214 212 212 211 210 211 215 220 222 218 216 215 212 211 211
36 35 33 33 33 33 32 29 25 22 17 13 10 10 11 10 9 7 4 2 3 4 4 3 3 2 1 359 358 356 353 350 347 343 341 341 341 341 341 338 335 334 333 330 325 314 295 277 269 266 263 263 263 256 247 244 244 245 245 245 239 233 230 226 224 222 220 221 223 219 211 209 210 209 209 210 212 216 218 215 216 216 214 212 211